sat.trackr.live / text

‹ back to catalog

KOREASAT 6

NORAD 37265 · 2010-070B

PAYLOAD ACTIVE UNKNOWN

§ Identity

Operator
Country
SKOR
Launch date
2010-12-29
Launch site
FRGUI
Launch vehicle
Mass (kg)
RCS (m²)
19.95

Purposes: comms

External: N2YO · Heavens-Above · Gunter

§ Orbital elements

Epoch: 2026-09-19T20:33:15.183072Z

Period
1,436.12 min
Inclination
0.0224°
Eccentricity
0.0002114
Mean motion
1.00270395 rev/d
Perigee alt
35,778.1 km
Apogee alt
35,795.9 km
Semi-major
42,165.1 km
B*
0.0000e+0
RAAN
160.4250°
Arg perigee
34.5012°
Mean anomaly
272.0144°
Rev number
5,772

§ Raw data

KOREASAT 61 37265U 10070B   26262.85642573  .00000000  00000+0  00000+0 0  99972 37265   0.0224 160.4250 0002114  34.5012 272.0144  1.00270395 57722

JSON: /api/v1/satellites/37265 · /tle

For live sub-satellite position, see the globe view (requires WebGL).

§ Visibility from observer

Set your observer location to see the next 7 days of passes ≥ 10°. The values pass through the URL so the page stays shareable.

No JS? Fill the form by hand. The geolocation button needs JavaScript.